Powrót do katalogu

DROID.002

AktywnyNaukaSSO
NORAD 63223·PAYLOAD·🇺🇸 United States

Wystrzelony Mar 15, 2025 z Vandenberg Space Force Base

Loading…

Następne Przeloty (najbliższe 24 godziny)

TLE

ŚwieżeSource: Space-Track

Epoka: Sep 14, 2026, 13:06 UTC

1 63223U 25052P   26257.54585608  .00004347  00000-0  18488-3 0  9993
2 63223  97.3791 148.9745 0004247 155.1215 205.0228 15.23536706 83478

Śledź DROID.002 w czasie rzeczywistym z AllMySat

Download on the App Store